星链-6187 (STARLINK-6187 )

导读

STARLINK-6187是美国太空探索技术公司(SpaceX)发射的星链(Starlink)低轨卫星,于2023年5月14日发射升空,属于星链卫星互联网项目,旨在为全球用户提供高速卫星互联网服务,目前已在轨运行,推进了星链星座全球组网进程,可覆盖偏远地区,提升互联网接入覆盖率。

基本信息
目录编号:
56546
目录名称:
STARLINK-6187
国际标识:
2023-065AV
轨道中心:
EARTH
卫星名称:
星链-6187
卫星全名:
星链-6187 (STARLINK-6187 )
卫星状态:
在轨 (已飞行1127 天)
发射日期:
2023-05-14 UTC
国别 :
美国 (US)
星等 :
--
轨道信息
数据来源 国际轨道数据
星历时间: 2026-06-14T16:33:04+0800
12小时前
查看轨道信息
半长轴: 6861.2km
偏心率: 0.0002172
轨道倾角: 43.002°
近地点辐角 264.990°
升交点赤经 37.873°
平近点角 95.070°
近地点: 481.572km
远地点: 484.554km
周期: 94.267分钟
每日圈数: 15.275754
详细信息
固有亮度:
5
最大亮度:
2.5
卫星平台:
Starlink v1.5
覆盖范围:
全球
运营商:
太空探索技术公司
运营商所在国:
美国
制造商(研发单位):
太空探索技术公司
制造商所在国:
美国
使用方式:
暂无
卫星简介
星链(Starlink)计划是由太空探索技术公司(SpaceX)提出的一个巨型低轨卫星互联网星座项目,计划在2019年至2024年间在太空搭建由约1.2万颗卫星组成的“星链”网络,其中1584颗将部署在地球上空550千米处的近地轨道,并从2020年开始工作。该卫星仍在工作。
2D轨道图
3D轨道图
轨道高度分析图
轨道倾角分析图
轨道综合分析图
查看轨道综合分析图